sat.trackr.live / text

‹ back to catalog

ONEWEB-0325

NORAD 49194 · 2021-083J

PAYLOAD ACTIVE UNKNOWN

§ Identity

Operator
Country
UK
Launch date
2021-09-14
Launch site
TYMSC
Launch vehicle
Mass (kg)
RCS (m²)

Purposes: comms

External: N2YO · Heavens-Above · Gunter

§ Orbital elements

Epoch: 2026-09-09T17:46:52.304160Z

Period
109.20 min
Inclination
87.9178°
Eccentricity
0.0002050
Mean motion
13.18687155 rev/d
Perigee alt
1,188.2 km
Apogee alt
1,191.3 km
Semi-major
7,567.9 km
B*
7.8683e-5
RAAN
318.6559°
Arg perigee
99.0950°
Mean anomaly
261.0414°
Rev number
24,115

§ Raw data

ONEWEB-03251 49194U 21083J   26252.74088315  .00000044  00000+0  78683-4 0  99972 49194  87.9178 318.6559 0002050  99.0950 261.0414 13.18687155241151

JSON: /api/v1/satellites/49194 · /tle

For live sub-satellite position, see the globe view (requires WebGL).

§ Visibility from observer

Set your observer location to see the next 7 days of passes ≥ 10°. The values pass through the URL so the page stays shareable.

No JS? Fill the form by hand. The geolocation button needs JavaScript.